Location: Bieujac
(44.5398°N, 0.1549°W)
Time: 00:18:42
(UTC+00:00)

NOSS 3-3 (A) - Pass Details

Date: 27 February 2020
Orbit: 833 x 1379 km, 63.4° (Epoch: 27 March)

Event Time Altitude Azimuth Distance (km) Brightness Sun altitude
Exits shadow 05:33:29 17° 256° (WSW) 2,135 5.2 -13.1°
Maximum altitude 05:37:47 42° 320° (NW) 1,355 4.5 -12.3°
Drops below altitude 10° 05:44:07 10° 30° (NNE) 2,892 6.9 -11.2°
Sets 05:47:08 0° 37° (NE) 3,942 7.7 -10.7°
